Find Starlink 5677

NORAD ID: 55463 Int'l Des: 2023-015 Owner: SPXS Country: US Constellation: starlink operational
LEOCIRCULAR

Live Position

Loading 3D Globe...

About Starlink 5677

Description loading...

Upcoming Passes

Passes for default location (London). Set your location on the main map for personalized predictions.

Altitude History

Loading altitude history...

Two-Line Element Set

1 55463U 23015Q 26126.37600128 .00018846 00000-0 96805-3 0 9996
2 55463 43.0007 7.2712 0003209 237.5923 122.4614 15.16172801179495
Epoch: May 6, 2026 • Age: 8 hours

Current Status

Altitude 518.4 km
Velocity 7.61 km/s
Sub-Earth Point 17.13°N, 95.58°W
Launch Date Feb 2, 2023
Age 3.2 years
Type internet

Technical Details

Classification Payload
Mass 305.00 kg
Dry Mass 290.00 kg
Total Mass 305.00 kg
Length 0.20 m
Diameter 2.80 m
Span 9.00 m
Shape Box + pan
Manufacturer SPXS
Bus Type Starlink
Phase Status In Orbit
Owner/State SPXS/US

Most Searched